TimeCDT,TemperatureF,Dew PointF,Humidity,Sea Level PressureIn,VisibilityMPH,Wind Direction,Wind SpeedMPH,Gust SpeedMPH,PrecipitationIn,Events,Conditions,WindDirDegrees,DateUTC
12:52 AM,18.0,1.9,50,30.14,10.0,ESE,9.2,-,N/A,,Clear,120,2014-03-26 05:52:00
1:52 AM,19.0,3.0,50,30.12,10.0,SE,9.2,-,N/A,,Clear,130,2014-03-26 06:52:00
2:52 AM,23.0,3.0,42,30.10,10.0,North,-9999.0,-,N/A,,Clear,0,2014-03-26 07:52:00
3:52 AM,19.9,5.0,52,30.08,10.0,SE,9.2,-,N/A,,Clear,130,2014-03-26 08:52:00
4:52 AM,23.0,5.0,46,30.03,10.0,SE,12.7,-,N/A,,Clear,140,2014-03-26 09:52:00
5:52 AM,23.0,6.1,48,30.01,10.0,SE,12.7,-,N/A,,Clear,140,2014-03-26 10:52:00
6:52 AM,23.0,7.0,50,29.98,10.0,SE,11.5,-,N/A,,Clear,130,2014-03-26 11:52:00
7:52 AM,27.0,10.9,51,29.96,10.0,SE,9.2,-,N/A,,Clear,140,2014-03-26 12:52:00
8:52 AM,33.1,12.9,43,29.92,10.0,SSE,17.3,23.0,N/A,,Clear,150,2014-03-26 13:52:00
9:52 AM,37.9,15.1,39,29.88,10.0,SSE,16.1,32.2,N/A,,Clear,160,2014-03-26 14:52:00
10:52 AM,45.0,19.0,36,29.84,10.0,South,26.5,35.7,N/A,,Clear,180,2014-03-26 15:52:00
11:52 AM,50.0,21.0,32,29.79,10.0,South,29.9,38.0,N/A,,Clear,170,2014-03-26 16:52:00
12:52 PM,55.0,23.0,29,29.73,10.0,South,28.8,40.3,N/A,,Clear,190,2014-03-26 17:52:00
1:52 PM,60.1,25.0,26,29.67,10.0,South,25.3,38.0,N/A,,Clear,170,2014-03-26 18:52:00
2:52 PM,64.0,28.9,27,29.61,10.0,South,29.9,41.4,0.00,,Scattered Clouds,180,2014-03-26 19:52:00
3:52 PM,68.0,32.0,26,29.57,6.0,South,36.8,50.6,N/A,,Haze,190,2014-03-26 20:52:00
4:52 PM,68.0,34.0,28,29.53,7.0,South,33.4,43.7,0.00,,Partly Cloudy,190,2014-03-26 21:52:00
5:52 PM,64.0,36.0,35,29.53,9.0,South,29.9,43.7,N/A,,Overcast,190,2014-03-26 22:52:00
6:52 PM,57.9,37.9,47,29.54,10.0,South,32.2,44.9,N/A,,Overcast,190,2014-03-26 23:52:00
7:52 PM,53.1,39.0,59,29.56,10.0,South,29.9,42.6,N/A,,Overcast,190,2014-03-27 00:52:00
8:24 PM,51.1,39.0,63,29.54,10.0,SSW,26.5,43.7,N/A,,Overcast,200,2014-03-27 01:24:00
8:52 PM,50.0,39.0,66,29.57,10.0,South,24.2,39.1,N/A,,Overcast,190,2014-03-27 01:52:00
9:52 PM,48.0,39.0,71,29.55,10.0,South,27.6,38.0,N/A,,Overcast,190,2014-03-27 02:52:00
10:52 PM,46.9,39.9,77,29.54,10.0,South,31.1,38.0,N/A,,Overcast,190,2014-03-27 03:52:00
11:52 PM,46.0,39.9,79,29.54,10.0,South,29.9,39.1,N/A,,Overcast,190,2014-03-27 04:52:00